Flag for Austria Weather past 2 weeks in Melk, Lower Austria, Austria

Now
62 °F

Cool.


Feels Like: 62 °F
Forecast: 54 / 69 °F
Wind: No wind

Location: Amstetten

Current Time: Aug 30, 2014 at 10:34:15 AM

Latest Report: Aug 30, 2014 at 10:00 AM


Visibility: N/A

Pressure: 30.11 "Hg

Humidity: 96%

Dew point: 60 °F

Location of MelkLocation

Historic Weather in Melk — Graph

°F

Melk temperature yesterday

Maximum temperature yesterday: 78 °F (at 4:00 PM)
Minimum temperature yesterday: 47 °F (at 5:00 AM)
Average temperature yesterday: 62 °F

Past Weeks' High & Low Weather Summary

 TemperatureHumidityPressure
High78 °F (Aug 29, 4:00 PM)100% (Aug 28, 8:00 AM)30.17 "Hg (Aug 28, 8:00 AM)
Low44 °F (Aug 25, 7:00 AM)36% (Aug 25, 4:00 PM)29.75 "Hg (Aug 26, 5:00 PM)
Average60 °F82%30.00 "Hg
* Reported Aug 15 10:00 AM — Aug 30 9:00 AM, Melk, Weather by CustomWeather, © 2014

Note: Actual official high and low records may vary slightly from our data, if they occured in-between our weather recording intervals... More about our weather records

Advertising

Melk weather history for previous 24 hours

 ConditionsComfort  
Time TempWeatherWind HumidityBarometerVisibility
9:00 AM
Aug 30
62 °FFog.No wind97%30.09 "HgN/A
8:00 AM61 °FCool.No wind97%30.08 "HgN/A
7:00 AM62 °FCool.1 mph96%30.07 "HgN/A
6:00 AM60 °FCool.1 mph97%30.06 "HgN/A
5:00 AM61 °FCool.1 mph95%30.06 "HgN/A
4:00 AM61 °FCool.No wind95%30.06 "HgN/A
3:00 AM60 °FCool.1 mph95%30.06 "HgN/A
2:00 AM62 °FCool.1 mph92%30.06 "HgN/A
1:00 AM61 °FCool.1 mph93%30.06 "HgN/A
12:00 AM61 °FCool.1 mph92%30.06 "HgN/A
11:00 PM
Aug 29
62 °FCool.No wind92%30.04 "HgN/A
9:00 PM67 °FMild.1 mph78%30.03 "HgN/A
8:00 PM69 °FMild.1 mph73%30.01 "HgN/A
7:00 PM72 °FMild.1 mph70%30.00 "HgN/A
6:00 PM76 °FMild.2 mph54%30.00 "HgN/A
5:00 PM77 °FMild.1 mph51%29.99 "HgN/A
4:00 PM78 °FWarm.1 mph47%29.99 "HgN/A
3:00 PM78 °FWarm.1 mph45%30.01 "HgN/A
2:00 PM77 °FMild.1 mph47%30.02 "HgN/A
1:00 PM72 °FMild.1 mph59%30.03 "HgN/A
12:00 PM69 °FMild.2 mph65%30.05 "HgN/A
11:00 AM64 °FMild.1 mph73%30.07 "HgN/A
10:00 AM60 °FCool.1 mph79%30.09 "HgN/A
Weather by CustomWeather, © 2014

See weather overviewHow to use our weather pages